Thermal, CA

4:43 AM PDT on September 23, 2017 (GMT -0700)
Desert Resorts Regional

Weather History for KTRM - December, 2012

Change the Weather History Date:

Tuesday, December 18, 2012

  Actual Average Record
Temperature  
Mean Temperature 51 °F 52 °F  
Max Temperature 62 °F 69 °F 83 °F (1950)
Min Temperature 40 °F 36 °F 25 °F (1993)
Degree Days  
Heating Degree Days 14 13  
Month to date heating degree days 125 212  
Since 1 July heating degree days 222 379  
Cooling Degree Days 0 0  
Month to date cooling degree days 6 0  
Year to date cooling degree days 4282 3686  
Growing Degree Days 2 (Base 50)    
Moisture  
Dew Point 43 °F    
Average Humidity 84    
Maximum Humidity 93    
Minimum Humidity 75    
Precipitation  
Precipitation T in 0.01 in 0.26 in (1967)
Month to date precipitation 0.14 0.18  
Year to date precipitation 2.54 3.03  
Since 1 July precipitation 2.18  
Snow  
Snow 0.00 in - - ()
Month to date snowfall 0.0  
Year to date snowfall 0.0  
Snow Depth 0.00 in    
Sea Level Pressure  
Sea Level Pressure 29.84 in    
Wind  
Wind Speed 1 mph (NW)    
Max Wind Speed 9 mph    
Max Gust Speed 12 mph    
Visibility 7 miles    
Events Rain    
T = Trace of Precipitation, MM = Missing Value Source: NWS Daily Summary

Daily Weather History Graph

Daily Weather History Graph

Search for Another Location

Airport or City:

Trip Planner

Search our weather history database for the weather conditions in past years. The results will help you decide how hot, cold, wet, or windy it might be!

Date:

Astronomy

Dec. 18, 2012 Rise Set
Actual Time 6:43 AM PST 4:39 PM PST
Civil Twilight 6:16 AM PST 5:06 PM PST
Nautical Twilight 5:45 AM PST 5:38 PM PST
Astronomical Twilight 5:14 AM PST 6:08 PM PST
Moon 10:41 AM PST (12/18) 10:52 PM PST (12/18)
Length of Visible Light 10h 50m
Length of Day
9h 55m
Waxing Crescent, 36% of the Moon is Illuminated
Dec 18
Waxing Crescent
Dec 19
First Quarter
Dec 28
Full
Jan 4
Last Quarter
Jan 11
New

Hourly Weather History & Observations

Time (PST) Temp. Windchill Dew Point Humidity Pressure Visibility Wind Dir Wind Speed Gust Speed Precip Events Conditions
12:52 AM 44.1 °F - 42.1 °F 93% 29.93 in 7.0 mi Calm Calm - N/A   Clear
1:52 AM 46.0 °F 44.8 °F 43.0 °F 89% 29.92 in 7.0 mi North 3.5 mph - N/A   Clear
2:52 AM 46.0 °F - 44.1 °F 93% 29.91 in 7.0 mi Calm Calm - N/A   Scattered Clouds
3:52 AM 42.1 °F - 39.0 °F 89% 29.88 in 7.0 mi Calm Calm - N/A   Partly Cloudy
4:52 AM 45.0 °F 43.5 °F 42.1 °F 90% 29.87 in 7.0 mi WNW 3.5 mph - N/A   Partly Cloudy
5:52 AM 45.0 °F 43.5 °F 42.1 °F 90% 29.88 in 7.0 mi NNE 3.5 mph - N/A   Clear
6:03 AM 44.6 °F - 42.8 °F 93% 29.87 in 6.0 mi Calm Calm - N/A   Scattered Clouds
6:21 AM 46.4 °F 44.3 °F 42.8 °F 87% 29.87 in 6.0 mi North 4.6 mph - N/A   Mostly Cloudy
6:52 AM 46.0 °F - 43.0 °F 89% 29.86 in 4.0 mi Calm Calm - N/A   Mostly Cloudy
6:59 AM 44.6 °F 43.1 °F 42.8 °F 93% 29.86 in 4.0 mi NE 3.5 mph - N/A   Scattered Clouds
7:36 AM 46.4 °F - 44.6 °F 93% 29.87 in 4.0 mi Calm Calm - N/A   Mostly Cloudy
7:49 AM 48.2 °F - 44.6 °F 87% 29.86 in 5.0 mi Calm Calm - N/A   Overcast
7:52 AM 50.0 °F - 46.0 °F 86% 29.87 in 5.0 mi Calm Calm - N/A   Overcast
8:00 AM 50.0 °F - 46.4 °F 87% 29.87 in 5.0 mi NW 4.6 mph - N/A   Overcast
8:18 AM 50.0 °F - 46.4 °F 87% 29.87 in 5.0 mi Calm Calm - N/A   Overcast
8:52 AM 53.1 °F - 48.9 °F 86% 29.86 in 5.0 mi Calm Calm - N/A   Overcast
9:23 AM 55.4 °F - 50.0 °F 82% 29.85 in 5.0 mi Calm Calm - N/A   Haze
9:37 AM 55.4 °F - 50.0 °F 82% 29.85 in 5.0 mi Calm Calm - N/A   Haze
9:52 AM 55.9 °F - 50.0 °F 80% 29.84 in 5.0 mi Calm Calm - N/A   Haze
10:10 AM 55.4 °F - 51.8 °F 88% 29.84 in 5.0 mi Calm Calm - N/A   Haze
10:47 AM 59.0 °F - 51.8 °F 77% 29.83 in 5.0 mi Calm Calm - N/A   Haze
10:52 AM 59.0 °F - 51.1 °F 75% 29.83 in 6.0 mi Calm Calm - N/A   Haze
10:59 AM 59.0 °F - 51.8 °F 77% 29.82 in 7.0 mi Calm Calm - N/A   Overcast
11:45 AM 60.8 °F - 51.8 °F 72% 29.79 in 7.0 mi Variable 3.5 mph - N/A   Overcast
11:52 AM 59.0 °F - 52.0 °F 78% 29.79 in 7.0 mi Calm Calm - N/A   Overcast
12:52 PM 61.0 °F - 53.1 °F 75% 29.75 in 10.0 mi Variable 4.6 mph - N/A   Overcast
1:52 PM 62.1 °F - 53.1 °F 72% 29.74 in 10.0 mi WNW 4.6 mph - 0.00 in Rain Light Rain
2:52 PM 62.1 °F - 53.1 °F 72% 29.73 in 6.0 mi West 5.8 mph - 0.00 in Rain Light Rain
3:52 PM 62.1 °F - 51.1 °F 67% 29.74 in 8.0 mi North 5.8 mph - 0.00 in   Mostly Cloudy
4:52 PM 61.0 °F - 37.9 °F 42% 29.72 in 10.0 mi West 15.0 mph 25.3 mph N/A   Clear
5:52 PM 60.1 °F - 32.0 °F 35% 29.73 in 10.0 mi West 16.1 mph 24.2 mph N/A   Clear
6:52 PM 57.9 °F - 32.0 °F 37% 29.77 in 10.0 mi WSW 10.4 mph 19.6 mph N/A   Clear
7:52 PM 57.9 °F - 30.9 °F 36% 29.79 in 10.0 mi North 6.9 mph - N/A   Clear
8:52 PM 50.0 °F - 34.0 °F 54% 29.81 in 10.0 mi Calm Calm - N/A   Clear
9:52 PM 53.1 °F - 28.0 °F 38% 29.84 in 10.0 mi NNW 3.5 mph - N/A   Mostly Cloudy
10:52 PM 54.0 °F - 16.0 °F 22% 29.89 in 10.0 mi NW 10.4 mph - N/A   Scattered Clouds
11:52 PM 51.1 °F - 16.0 °F 25% 29.92 in 10.0 mi NW 8.1 mph 18.4 mph N/A   Clear